OPS 4682 DEB, 1399

Orbit data source: Space-Track

OPS 4682 DEB, 1399 is space debris in LEO originally from a launch on Sat, 03 Apr 1965 UTC launched from the Air Force Western Test Range (AFWTR). Debris objects in space refer to the collection of defunct objects orbiting the Earth. Examples of debris include non-operational satellites, rocket bodies, and fragments generated from explosions, collisions, or faulty payload assembly.

Loading next visibility...
Identifier
1399, 1965-027E
Orbit
LEO
Country
Flag of USUS
Related business
Manufacturer
Unknown
Mission
Spacecraft
Bus & Motor
Unknown
Mass
Unknown
Launch date (UTC)
1965-04-03 (61 years ago)
Launch vehicle
Unknown
Launch site
Air Force Western Test Range (AFWTR)
Object type
Payload
Rocket body
Debris
Shape & HBR
Unknown shape, 0.1 m
Radar Cross Section
Medium (>0.1 m² and <1 m²)

Expand to show TLE details & history
Last TLE update: 1 day ago

TLE from 1 day ago
0 OPS 4682 DEB
1 01399U 65027E   26262.32199961  .00000208  00000-0  66750-3 0  9997
2 01399  90.2769  27.4083 0008621  47.5683 312.6167 12.99964629645335
Epoch: 2026-09-19T07:43Z
TLE epoch observation values (Epoch: 2026-09-19T07:43:40.766Z)
Latitude
-0.00001°
Longitude
-86.74376°
Altitude
1,260.651 km
Speed
7.227 km/s
True Right ascension
01h 49m 37s
True Declination
0° 00' 00"
Sunlit
Object was in full shadow at epoch
Visualization orbit readout
Latitude
Unknown
Longitude
Unknown
Altitude
Unknown
Speed
Unknown
Apparent Right ascension
Unknown
Apparent Declination
Unknown
Sunlit
N/A
Visualization observer readout
Local Sidereal Time
06:57:48
Azimuth
Unknown
Elevation
Unknown
Doppler factor
Unknown
Orbital elements
Apogee altitude
1,265.937 km
Perigee altitude
1,252.768 km
Semi-major axis
7,637.489 km
Eccentricity
0.00086
Inclination
90.2769°
RAAN
27.4083°
Arg. of periapsis
47.5683°
True anomaly
312.54395°
Mean anomaly
312.6167°
Eccentric anomaly
312.58033°
Mean motion
3.25175 °/min
Orbital period
110.71 mins
BSTAR
0.0006675
Loading maneuver chart data...
Computing Atmospheric mass density...
Loading historical data...
Loading historical data...
Loading historical data...
Loading historical data...
Loading historical data...
Loading historical data...
Loading historical data...

Documentation

Showing up to 5 results
|